Volver al catálogo

AMC-7

GE-7

ActivoComunicacionesGEO
NORAD 26495·PAYLOAD·🇱🇺 Luxembourg

Lanzado Sep 14, 2000 desde Guiana Space Centre

Loading…

TLE

ActualizadoSource: Space-Track

Época: Sep 14, 2026, 05:19 UTC

1 26495U 00054B   26257.22195074 -.00000081  00000-0  00000-0 0  9997
2 26495   7.1354  69.1518 0007382 119.8246 260.5096  0.99135095 94854

Sigue AMC-7 en tiempo real con AllMySat

Download on the App Store